パンスターズ彗星

C/2016 A1 ( PanSTARRS )

English version
Home page
Updated on January 23, 2020

---------------------------------------------------------------------

・ プロフィール

発見日 2016年1月1日
発見光度 19.3等
発見者 Pan-STARRS 1 telescope (Haleakala)

・ 写真集

・ 軌道要素

Epoch 2017 Nov. 23.0 TT = JDT 2458080.5
T 2017 Nov. 23.37348 TT                                 Williams
q   5.3277612            (2000.0)            P               Q
z  -0.0003723      Peri.   10.32044     -0.53513170     +0.51121114
 +/-0.0000003      Node   128.17453     +0.70123233     -0.17512664
e   1.0019837      Incl.  121.18571     +0.47107035     +0.84142369
From 2004 observations 2016 Jan. 1-2019 Dec. 2, mean residual 0".5.

・ 星図

・ 光度変化

        m1 = 1.2 + 5 logΔ + 15.0 log r

---------------------------------------------------------------------

軌道要素はM.P.E.C. 2019-X94に掲載されたものです。
星図はステラナビゲータ Ver.10 (アストロアーツ) で作成したものです。
光度グラフはComet for Windowsで作成したものです。

---------------------------------------------------------------------

Copyright(C) Seiichi Yoshida (comet@aerith.net). All rights reserved.